WX2DX-2 Weather Reports


time (UTC)temp
C
wind
direction
speed
KPH
gust
KPH
rain 1hr
cm
rain 24hr
cm
rain mn
cm
humidity
%
barometer
mb
20260504044525 4 239 0.0 3.2 0.00 0.00 0.00 71 1013.3
20260504043019 4 239 0.0 4.8 0.00 0.00 0.00 71 1013.2
20260504041515 4 255 0.0 3.2 0.00 0.00 0.00 70 1013.2
20260504040011 5 244 0.0 3.2 0.00 0.00 0.00 68 1013.3
20260504034508 5 230 1.6 4.8 0.00 0.00 0.00 68 1013.1
20260504033042 5 245 0.0 3.2 0.00 0.00 0.00 65 1013.1
20260504031540 5 217 1.6 4.8 0.00 0.00 0.00 66 1013.1
20260504030044 5 248 0.0 0.0 0.00 0.00 0.00 1013.0
20260504021553 6 237 0.0 3.2 0.00 0.00 0.00 68 1013.3
20260504020051 6 210 1.6 4.8 0.00 0.00 0.00 64 1013.2
20260504014602 7 223 0.0 3.2 0.00 0.00 0.00 60 1013.1
20260504013053 8 221 0.0 3.2 0.00 0.00 0.00 55 1013.1
20260504011554 9 219 0.0 4.8 0.00 0.00 0.00 53 1012.9
20260504010056 10 211 1.6 4.8 0.00 0.00 0.00 49 1012.9
20260504004549 10 238 3.2 9.7 0.00 0.00 0.00 47 1012.8
20260504003052 11 242 4.8 14.5 0.00 0.00 0.00 46 1012.8
20260504001547 11 266 4.8 12.9 0.00 0.00 0.00 45 1012.6
20260504000049 12 234 6.4 19.3 0.00 0.00 0.00 44 1012.5
20260503234550 12 228 9.7 19.3 0.00 0.00 0.00 42 1012.5
20260503233045 12 265 4.8 22.5 0.00 0.00 0.00 43 1012.5
20260503231545 12 273 11.3 24.1 0.00 0.00 0.00 41 1012.5
20260503230045 13 269 14.5 25.7 0.00 0.00 0.00 40 1012.5
20260503224544 13 273 9.7 25.7 0.00 0.00 0.00 43 1012.5
20260503223044 13 236 9.7 25.7 0.00 0.00 0.00 42 1012.5
20260503221542 13 200 12.9 24.1 0.00 0.00 0.00 42 1012.5
20260503220048 13 257 11.3 32.2 0.00 0.00 0.00 42 1012.6
20260503214540 13 254 11.3 24.1 0.00 0.00 0.00 39 1012.7
20260503213039 13 275 8.0 33.8 0.00 0.00 0.00 41 1012.6
20260503211537 13 315 9.7 17.7 0.00 0.00 0.00 40 1012.6
20260503210038 13 294 6.4 19.3 0.00 0.00 0.00 43 1012.6
20260503204537 13 235 11.3 30.6 0.00 0.00 0.00 40 1012.7
20260503203035 13 346 9.7 24.1 0.00 0.00 0.00 41 1012.7
20260503201534 13 316 8.0 33.8 0.00 0.00 0.00 40 1012.9
20260503200036 12 258 14.5 33.8 0.00 0.00 0.00 41 1013.1
20260503194632 13 267 14.5 30.6 0.00 0.00 0.00 41 1013.1
20260503193034 13 250 12.9 29.0 0.00 0.00 0.00 40 1013.4
20260503191527 13 275 12.9 35.4 0.00 0.00 0.00 42 1013.6
20260503190029 13 228 11.3 29.0 0.00 0.00 0.00 43 1013.8
20260503184524 12 319 8.0 27.4 0.00 0.00 0.00 43 1013.7
20260503183035 12 292 8.0 30.6 0.00 0.00 0.00 45 1014.1
20260503181522 12 265 11.3 33.8 0.00 0.00 0.00 45 1014.1
20260503180021 12 329 11.3 29.0 0.00 0.00 0.00 45 1014.1
20260503174520 12 226 11.3 25.7 0.00 0.00 0.00 44 1014.3
20260503173020 12 236 11.3 29.0 0.00 0.00 0.00 50 1014.3
20260503171517 12 299 8.0 22.5 0.00 0.00 0.00 44 1014.5
20260503081513 2 214 1.6 6.4 0.00 0.00 0.00 72 1014.5
20260503071510 1 274 1.6 12.9 0.00 0.00 0.00 72 1014.2
20260503060103 2 338 1.6 12.9 0.00 0.00 0.00 69 1014.2
20260503054603 2 332 1.6 14.5 0.00 0.05 0.00 68 1014.2
20260503053054 3 313 0.0 14.5 0.00 0.05 0.00 68 1014.3
20260503051551 3 281 1.6 6.4 0.00 0.05 0.00 67 1014.4
20260503050047 3 266 4.8 12.9 0.00 0.05 0.00 66 1014.4